AirNav   Pilot Hours Calculator
 
 1487 users online  

1A3 Martin Campbell Field Airport
Copperhill, Tennessee, USA

GOING TO COPPERHILL?


FAA INFORMATION EFFECTIVE 23 MAY 2019

Location

FAA Identifier: 1A3
Lat/Long: 35-00-56.9000N / 084-20-48.6000W
35-00.948333N / 084-20.810000W
35.0158056 / -84.3468333
(estimated)
Elevation: 1788.9 ft. / 545.3 m (surveyed)
Variation: 05W (2010)
From city: 3 miles NE of COPPERHILL, TN
Time zone: UTC -4 (UTC -5 during Standard Time)
Zip code: 37317

Airport Operations

Airport use: Open to the public
Activation date: 12/1946
Control tower: no
ARTCC: ATLANTA CENTER
FSS: NASHVILLE FLIGHT SERVICE STATION
NOTAMs facility: BNA (NOTAM-D service available)
Attendance: IRREG
Wind indicator: yes
Segmented circle: yes
Beacon: white-green (lighted land airport)
Operates sunset to sunrise.

Airport Communications

CTAF: 122.9
WX AWOS-3 at DZJ (20 nm SE): 119.325 (706-745-9271)
  • APCH/DEP SVC PRVDD BY ATLANTA ARTCC ON FREQS 133.1/342.425 (MOUNT OGLETHORPE RCAG).

Nearby radio navigation aids

VOR radial/distance  VOR name  Freq  Var
HRSr282/21.6HARRIS VORTAC109.8000E
GQOr084/39.8CHOO CHOO VORTAC115.8001E

 
NDB name  Hdg/Dist  Freq  Var  ID
MC MINN COUNTY158/25.024203WMMI -- -- ..

Airport Services

Fuel available: 100LL
FUEL 24 HR CREDIT CARD SVC AVBL.
Parking: hangars and tiedowns
Bottled oxygen: NONE
Bulk oxygen: NONE

Runway Information

Runway 2/20

Dimensions: 3500 x 75 ft. / 1067 x 23 m
Surface: asphalt, in good condition
Weight bearing capacity: 
Single wheel: 30.0
Double wheel: 45.0
RUNWAY 2  RUNWAY 20
Latitude: 35-00.669105N35-01.228858N
Longitude: 084-20.894662W084-20.725090W
Elevation: 1771.8 ft.1788.7 ft.
Traffic pattern: leftright
Runway heading: 019 magnetic, 014 true199 magnetic, 194 true
Markings: nonprecision, in good conditionnonprecision, in good condition
Visual slope indicator: 2-light PAPI on left (3.00 degrees glide path)2-light PAPI on left (4.00 degrees glide path)
Runway end identifier lights: yes
OTS INDEFLY.
yes
OTS INDEFLY.
Touchdown point: yes, no lightsyes, no lights
Obstructions: 29 ft. tree, 440 ft. from runway, 202 ft. left of centerline, 8:1 slope to clear
RWY 02 APCH RATIO 28:1 TO DSPLCD THD
20 ft. tree, 222 ft. from runway, 97 ft. left of centerline, 1:1 slope to clear
RWY 20 APCH RATIO 25:1 TO DSPLCH THLD

Airport Ownership and Management from official FAA records

Ownership: Publicly-owned
Owner: POLK COUNTY
COUNTY COURTHOUSE
BENTON, TN 37307
Phone 423-338-4527
Manager: ALAN FROSCH
971 AIRPORT ROAD
COPPERHILL, TN 37317
Phone 423-496-9465

Airport Operational Statistics

Aircraft based on the field: 14
Single engine airplanes: 14
    
Aircraft operations: avg 71/week *
59% transient general aviation
41% local general aviation
* for 12-month period ending 30 November 2016

Additional Remarks

BIRDS ON & INVOF ARPT.
ARPT CLSD AT NIGHT.

Instrument Procedures

NOTE: All procedures below are presented as PDF files. If you need a reader for these files, you should download the free Adobe Reader.

NOT FOR NAVIGATION. Please procure official charts for flight.
FAA instrument procedures published for use from 23 May 2019 at 0901Z to 20 June 2019 at 0900Z.

 
IAPs - Instrument Approach Procedures
RNAV (GPS) RWY 02 **CHANGED**   download (211KB)
RNAV (GPS) RWY 20 **CHANGED**   download (214KB)
NOTE: Special Take-Off Minimums/Departure Procedures apply   download (126KB)

Other nearby airports with instrument procedures:

KDZJ - Blairsville Airport (20 nm SE)
49A - Gilmer County Airport (25 nm S)
KRZR - Cleveland Regional Jetport (25 nm NW)
KMMI - McMinn County Airport (25 nm NW)
KRHP - Western Carolina Regional Airport (26 nm NE)
 
Loc | Ops | Rwys | IFR | FBO | Links
Com | Nav | Svcs | Stats | Notes
Area around 1A3 (Martin Campbell Field Airport)
 
Road maps at: MapQuest Bing Google
 
Aerial photo
WARNING: Photo may not be current or correct
Aerial photo of 1A3 (Martin Campbell Field Airport)
Photo by Alan Frosch
Taken in the Spring of 2016
looking north.

Do you have a better or more recent aerial photo of Martin Campbell Field Airport that you would like to share? If so, please send us your photo.

 
Sectional chart

 
Airport distance calculator
Flying to Martin Campbell Field Airport? Find the distance to fly.

From to 1A3

Sunrise and sunset
Times for 24-May-2019
 Local
(UTC-4)
 Zulu
(UTC)
Morning civil twilight06:0010:00
Sunrise06:2910:29
Sunset20:4000:40
Evening civil twilight21:0801:08

Current date and time
Zulu (UTC)  24-May-2019 16:30:17
Local (UTC-4)  24-May-2019 12:30:17
 
METAR
KDZJ 
20nm SE 
241615Z AUTO 32003KT 10SM SCT035 BKN075 BKN085 27/20 A3027 RMK AO2 T02720198
K49A 
25nm S 
241615Z AUTO 27003KT 10SM CLR 29/20 A3027 RMK AO2 T02940202
KRZR 
25nm NW 
241615Z AUTO 00000KT 4SM HZ SCT043 SCT075 BKN090 30/23 A3019 RMK A01
KMMI 
25nm NW 
241615Z AUTO 00000KT 10SM SCT040 SCT090 30/20 A3023 RMK A01
KRHP 
26nm NE 
241600Z AUTO 00000KT 10SM BKN033 BKN042 OVC080 27/20 A3025 RMK AO2 T02730195
KMNV 
32nm N 
241615Z AUTO 29006KT 10SM FEW044 SCT060 SCT070 30/20 A3021 RMK A01
KJZP 
34nm S 
241615Z AUTO 32008KT 10SM SCT034 SCT043 SCT085 28/19 A3027 RMK AO2 T02780194 PNO
TAF
KCHA 
42nm W 
241120Z 2412/2512 24005KT P6SM FEW050
NOTAMs
Click for the latest NOTAMs
NOTAMs are issued by the DoD/FAA and will open in a separate window not controlled by AirNav.

 

 
 

FBO, Fuel Providers, and Aircraft Ground Support

  
 Business Name 
 
 Contact 
 
 Services / Description 
 
Fuel Prices
 
Comments
  
Whitewater Aviation Corporation 423-496-9465
423-210-7681
[web site]
[email]
Airport management, Aviation fuel, Aircraft parking (ramp or tiedown), Hangars, Hangar leasing / sales, Aircraft maintenance, Rental cars on site, ...

More info about Whitewater Aviation Corporation
Shell
100LL
SS $4.29 
 Updated 23-May-2019
 
   9 read write
SS=Self service
Update Fuel Prices
 

Would you like to see your business listed on this page?

 If your business provides an interesting product or service to pilots, flight crews, aircraft, or users of the Martin Campbell Field Airport, you should consider listing it here.  To start the listing process, click on the button below
 
Add a business
 

Other Pages about Martin Campbell Field Airport

Update a link
 
Copyright © AirNav, LLC. All rights reserved. Privacy Policy  Contact